Regional Weather Roundup
Issued by NWS

Home | Current Version | Previous Version | Text Only | Print | Product List | Glossary Off
Versions: 1 2 3 4 5 6 7 8 9 10 11 12 13 14 15 16 17 18 19 20 21 22 23 24 25 26 27 28 29 30 31 32 33 34 35 36 37 38 39 40 41 42 43 44 45 46 47 48 49 50

000
ASUS43 KLOT 241408
RWRIL

ILLINOIS REGIONAL WEATHER ROUNDUP
NATIONAL WEATHER SERVICE CHICAGO/ROMEOVILLE IL
900 AM CDT SUN MAY 24 2015

NOTE: "FAIR" INDICATES FEW OR NO CLOUDS BELOW 12,000 FEET WITH NO
SIGNIFICANT WEATHER AND/OR OBSTRUCTIONS TO VISIBILITY.

* THESE STATIONS ARE NOT UNDER NWS QUALITY CONTROL. THEY ALSO MAY NOT
  REPORT WEATHER SUCH AS PRECIPITATION OR FOG.

ILZ001-002-007-009-015-016-024-241500-
NORTHWEST ILLINOIS

CITY           SKY/WX    TMP DP  RH WIND       PRES   REMARKS
MOLINE         CLOUDY    60  57  89 E10       30.07F
STERLING*      CLOUDY    61  55  82 NE6       30.13F
SAVANNA*       LGT RAIN  61  57  85 E5        30.13F
$$

ILZ003-004-008-010-011-017-018-241500-
NORTH CENTRAL ILLINOIS

CITY           SKY/WX    TMP DP  RH WIND       PRES   REMARKS
ROCKFORD       LGT RAIN  63  54  72 NE3       30.17R
FREEPORT*      LGT RAIN  59  56  89 E5        30.17R
ROCHELLE*      CLOUDY    63  52  66 SE10      30.15R
DE KALB*       CLOUDY    62  50  66 SE8       30.16S
PERU*          CLOUDY    63  57  82 E9        30.13F
$$

ILZ005-006-012>014-019>023-241500-
NORTHEAST ILLINOIS

CITY           SKY/WX    TMP DP  RH WIND       PRES   REMARKS
CHICAGO-OHARE  CLOUDY    64  53  67 E3        30.17F
CHICAGO-MIDWAY LGT RAIN  64  56  75 SE9       30.18S
AURORA         CLOUDY    65  53  65 E8        30.15F
LANSING*       LGT RAIN  63  52  67 E5        30.18F
JOLIET*        CLOUDY    64  57  78 E7        30.16F
WAUKEGAN       LGT RAIN  64  53  67 S10       30.19R
DUPAGE AIRPORT CLOUDY    64  53  67 E6        30.16F
KANKAKEE*      CLOUDY    67  53  61 SE8       30.17F
WHEELING       CLOUDY    63  56  78 CALM      30.19F
MORRIS*        CLOUDY    64  56  76 E8        30.13F
ROMEOVILLE*    CLOUDY    62  56  81 E7        30.16F
NORTHERLY ISL    N/A     58  53  84 S6          N/A
$$

LMZ740>746-241500-
SOUTHERN LAKE MICHIGAN

STATION/POSITION SKY/WX   TEMP    WIND        PRES    VSBY  WAVE
                          AIR SEA DIR/SP/G                  HT/PER
                          (F)     (DEG/KT/KT) (MB)    (MI)  (FT/S)
SOUTHERN BUOY              47     160/  8/  8 1022.8F
HARRISON CRIB              62     180/ 11/ 15   N/A
BURNHAM HARBOR             58     150/  2/  6   N/A
CALUMET HARBOR             61     250/  2/  7   N/A
BURNS HARBOR               67     160/  5/ 11 1022.7F
MICHIGAN CITY              66     120/  9/ 12   N/A
MICHIGAN CITY 6N           60 53  180/  6/  8   N/A           1
ST. JOSEPH                 60 54  190/  6/  6   N/A           1
$$

ILZ025>027-034>036-040-047-049-050-058-095>099-241500-
WEST-CENTRAL ILLINOIS

CITY           SKY/WX    TMP DP  RH WIND       PRES   REMARKS
QUINCY         CLOUDY    68  57  68 SE14      30.01F
GALESBURG*     RAIN      63  56  80 E8        30.06F
MACOMB*        CLOUDY    63  56  77 SE10      30.07F
JACKSONVILLE*  CLOUDY    73  58  60 SE15G22   30.06F
PITTSFIELD*    CLOUDY    69  56  63 SE9G20    30.05F
$$

ILZ028>032-037-038-041>044-048-051>054-059>061-241500-
CENTRAL ILLINOIS

CITY           SKY/WX    TMP DP  RH WIND       PRES   REMARKS
PONTIAC        CLOUDY    71  54  54 SE9       30.15S
BLOOMINGTON    CLOUDY    71  56  59 S12       30.13F
DECATUR        PTSUNNY   74  56  53 S15       30.12F
PEORIA         CLOUDY    70  54  56 SE7       30.09F
LACON*         CLOUDY    66  56  70 E7        30.10F
LINCOLN*       PTSUNNY   75  56  51 S13       30.08F
SPRINGFIELD    CLOUDY    73  57  57 SE13      30.09F
TAYLORVILLE    MOSUNNY   70  57  64 S13       30.11F
$$

ILZ033-039-045-046-055>057-062-063-241500-
EAST-CENTRAL ILLINOIS

CITY           SKY/WX    TMP DP  RH WIND       PRES   REMARKS
CHAMPAIGN      CLOUDY    75  54  47 S15       30.15F
DANVILLE*      CLOUDY    70  53  54 S12       30.15F
RANTOUL*       CLOUDY    75  53  47 S13       30.15F
MATTOON        CLOUDY    71  56  58 S12       30.15F
PARIS*         CLOUDY    73  55  53 S16       30.18F
$$

ILZ079-100>102-241500-
SOUTHWEST ILLINOIS

CITY           SKY/WX    TMP DP  RH WIND       PRES   REMARKS
ALTON          MOSUNNY   72  63  73 S12       30.08F
BELLEVILLE     MOSUNNY   72  62  71 SE13      30.08F
CAHOKIA*       MOSUNNY   73  60  63 S12G21    30.07F
SPARTA*        MOSUNNY   72  62  71 S8        30.11S
$$

ILZ064>066-069>071-074>076-080>082-084>086-088>090-092>094-241500-
SOUTH-CENTRAL ILLINOIS

CITY           SKY/WX    TMP DP  RH WIND       PRES   REMARKS
CARBONDALE     MOSUNNY   74  60  61 S18G24    30.12F
CAIRO*         SUNNY     75  60  59 S15G21    30.13F
EFFINGHAM*     MOSUNNY   72  55  53 SE10      30.16F
MARION         MOSUNNY   75  61  60 S14       30.14F
MT. VERNON     PTSUNNY   73  59  60 S12       30.15F
CENTRALIA*     MOSUNNY   75  58  56 SE14G21   30.12F
SALEM*         MOSUNNY   75  58  55 S13       30.14F
METROPOLIS*    MOSUNNY   75  60  59 SE9       30.15F
$$

ILZ067-068-072-073-078-083-087-091-241500-
SOUTHEAST ILLINOIS

CITY           SKY/WX    TMP DP  RH WIND       PRES   REMARKS
LAWRENCEVILLE  MOSUNNY   74  56  53 S16       30.19F
FLORA*         MOSUNNY   73  58  59 S12       30.16F
FAIRFIELD*     MOSUNNY   74  58  57 S14G22    30.15F
HARRISBURG*    SUNNY     73  59  61 S10       30.17F
ROBINSON*      PTSUNNY   73  55  53 S10       30.19F
CARMI*         MOSUNNY   73  52  46 S14       30.16F
$$

ABBREVIATIONS USED IN REMARKS
   TC - TEMPERATURE IN CELSIUS
  WCI - WIND CHILL INDEX
   HX - HEAT INDEX
  VSB - VISIBILITY
$$



USA.gov is the U.S. government's official web portal to all federal, state and local government web resources and services.